Location: Milton Keynes
(52.0316°N, 0.7531°W)
Time: 11:15:03
(UTC+01:00)

GENESIS II - Pass Details

Date: 01 February 2019
Orbit: 483 x 547 km, 64.5° (Epoch: 19 April)

Event Time Altitude Azimuth Distance (km) Brightness Sun altitude
Exits shadow 05:58:29 15° 220° (SW) 1,454 6.2 -16.2°
Maximum altitude 06:01:40 86° 133° (SE) 532 4.2 -15.7°
Drops below altitude 10° 06:05:41 10° 44° (NE) 1,791 7.4 -15.1°
Sets 06:07:55 0° 44° (NE) 2,695 8.4 -14.8°
